EZY78DH LEPA-EGCC

Flight info

Callsign EZY78DH
Flight time N/A
Altitude 36000
Route DRAGO DCT PAPOS DCT UMURE N863 GIROM DCT AGN DCT SECHE DCT UVELI DCT CNA DCT TUPAR UN861 ANG DCT AKIKI UN867 AVANT UM184 HEMEL T420 ELVOS
Aircraft A320/M-SDE3FGHIRWY/LB1

Departure

Time N/A
Airport Palma de Mallorca Airport (LEPA)

Arrival

Time 2026-05-06 18:19
Airport Manchester Airport (EGCC)
Time Latitude Longitude Altitude Speed Heading
2026-05-06 17:40 49.94229 -1.21074 35982 ft 435 kts
2026-05-06 17:41 50.00171 -1.19243 35981 ft 435 kts
2026-05-06 17:41 50.06110 -1.17382 35980 ft 436 kts
2026-05-06 17:42 50.12056 -1.15494 35981 ft 436 kts 11°
2026-05-06 17:42 50.17898 -1.13135 35979 ft 437 kts 14°
2026-05-06 17:43 50.23743 -1.10505 35981 ft 440 kts 14°
2026-05-06 17:43 50.29722 -1.07903 35987 ft 451 kts 13°
2026-05-06 17:44 50.35811 -1.05355 35986 ft 454 kts 13°
2026-05-06 17:44 50.41910 -1.02802 35996 ft 454 kts 13°
2026-05-06 17:45 50.48018 -1.00210 35984 ft 455 kts 13°
2026-05-06 17:45 50.54136 -0.97593 35983 ft 455 kts 13°
2026-05-06 17:46 50.60207 -0.94979 35987 ft 455 kts 13°
2026-05-06 17:46 50.66321 -0.92334 35996 ft 455 kts 13°
2026-05-06 17:47 50.72436 -0.89695 35987 ft 455 kts 13°
2026-05-06 17:47 50.78552 -0.87053 35991 ft 456 kts 13°
2026-05-06 17:48 50.84665 -0.84400 35986 ft 456 kts 13°
2026-05-06 17:48 50.90790 -0.81746 35990 ft 456 kts 13°
2026-05-06 17:49 50.96914 -0.79090 35993 ft 456 kts 13°
2026-05-06 17:49 51.03039 -0.76440 35993 ft 456 kts 13°
2026-05-06 17:50 51.09131 -0.73791 35997 ft 457 kts 13°
2026-05-06 17:50 51.15260 -0.71103 36003 ft 457 kts 13°
2026-05-06 17:51 51.21390 -0.68401 36006 ft 457 kts 13°
2026-05-06 17:51 51.27521 -0.65753 36003 ft 456 kts
2026-05-06 17:52 51.30659 -0.65396 36004 ft 451 kts 353°
2026-05-06 17:52 51.33768 -0.65964 36015 ft 449 kts 351°
2026-05-06 17:52 51.39980 -0.67257 36002 ft 450 kts 350°
2026-05-06 17:53 51.46188 -0.68567 36002 ft 451 kts 350°
2026-05-06 17:53 51.52418 -0.69872 36006 ft 451 kts 350°
2026-05-06 17:54 51.58634 -0.71181 36013 ft 451 kts 350°
2026-05-06 17:54 51.64862 -0.72493 36015 ft 451 kts 350°
2026-05-06 17:55 51.71083 -0.73792 36008 ft 451 kts 350°
2026-05-06 17:55 51.77276 -0.75097 36005 ft 451 kts 350°
2026-05-06 17:56 51.83466 -0.76414 35677 ft 452 kts 350°
2026-05-06 17:56 51.86618 -0.77090 35426 ft 451 kts 350°
2026-05-06 17:56 51.89726 -0.77756 35176 ft 451 kts 350°
2026-05-06 17:57 51.92837 -0.78423 34940 ft 451 kts 350°
2026-05-06 17:57 51.95909 -0.79079 34567 ft 452 kts 350°
2026-05-06 17:57 51.99020 -0.79742 34000 ft 451 kts 350°
2026-05-06 17:57 52.02133 -0.80402 33405 ft 450 kts 350°
2026-05-06 17:58 52.05240 -0.81064 32869 ft 451 kts 349°
2026-05-06 17:58 52.08357 -0.81733 32308 ft 452 kts 349°
2026-05-06 17:58 52.11480 -0.82407 31764 ft 453 kts 349°
2026-05-06 17:58 52.14611 -0.83083 31220 ft 454 kts 349°
2026-05-06 17:59 52.17750 -0.83758 30684 ft 455 kts 349°
2026-05-06 17:59 52.20893 -0.84435 30151 ft 457 kts 349°
2026-05-06 17:59 52.23991 -0.85434 29566 ft 450 kts 340°
2026-05-06 17:59 52.26855 -0.87399 29064 ft 443 kts 328°
2026-05-06 18:00 52.29480 -0.89975 28566 ft 439 kts 326°
2026-05-06 18:00 52.32081 -0.92564 28064 ft 437 kts 326°
2026-05-06 18:00 52.34666 -0.95138 27572 ft 434 kts 326°
2026-05-06 18:00 52.37232 -0.97693 27076 ft 431 kts 326°
2026-05-06 18:01 52.39753 -1.00206 26582 ft 427 kts 327°
2026-05-06 18:01 52.42282 -1.02731 26088 ft 424 kts 327°
2026-05-06 18:01 52.44788 -1.05238 25565 ft 420 kts 327°
2026-05-06 18:01 52.47273 -1.07732 25060 ft 417 kts 327°
2026-05-06 18:02 52.49735 -1.10209 24516 ft 414 kts 327°
2026-05-06 18:02 52.52184 -1.12677 23972 ft 411 kts 327°
2026-05-06 18:02 52.54608 -1.15119 23407 ft 407 kts 327°
2026-05-06 18:02 52.57012 -1.17540 22839 ft 404 kts 327°
2026-05-06 18:03 52.59400 -1.19944 22308 ft 400 kts 327°
2026-05-06 18:03 52.61768 -1.22333 21789 ft 397 kts 327°
2026-05-06 18:03 52.64110 -1.24702 21277 ft 394 kts 327°
2026-05-06 18:03 52.66434 -1.27059 20769 ft 391 kts 327°
2026-05-06 18:04 52.68744 -1.29407 20262 ft 388 kts 327°
2026-05-06 18:04 52.71030 -1.31731 20006 ft 386 kts 327°
2026-05-06 18:04 52.73316 -1.34051 19995 ft 385 kts 327°
2026-05-06 18:04 52.75587 -1.36362 19687 ft 381 kts 327°
2026-05-06 18:05 52.77809 -1.38627 19128 ft 379 kts 327°
2026-05-06 18:05 52.80040 -1.40911 18590 ft 377 kts 327°
2026-05-06 18:05 52.82285 -1.43216 18046 ft 373 kts 327°
2026-05-06 18:05 52.84451 -1.45438 17491 ft 370 kts 327°
2026-05-06 18:06 52.86629 -1.47668 16955 ft 366 kts 327°
2026-05-06 18:06 52.88787 -1.49877 16425 ft 364 kts 327°
2026-05-06 18:06 52.90934 -1.52080 15895 ft 361 kts 327°
2026-05-06 18:06 52.93060 -1.54265 15379 ft 359 kts 327°
2026-05-06 18:07 52.95174 -1.56443 14889 ft 356 kts 327°
2026-05-06 18:07 52.97269 -1.58606 14410 ft 353 kts 327°
2026-05-06 18:07 52.99347 -1.60754 13927 ft 351 kts 327°
2026-05-06 18:07 53.01412 -1.62889 13411 ft 348 kts 327°
2026-05-06 18:08 53.03461 -1.65007 12852 ft 346 kts 327°
2026-05-06 18:08 53.05403 -1.67344 12307 ft 342 kts 315°
2026-05-06 18:08 53.06992 -1.70264 11754 ft 340 kts 311°
2026-05-06 18:08 53.07991 -1.72257 11384 ft 338 kts 305°
2026-05-06 18:09 53.08986 -1.75764 10840 ft 336 kts 287°
2026-05-06 18:09 53.09620 -1.79508 10302 ft 335 kts 285°
2026-05-06 18:09 53.10220 -1.83231 9732 ft 333 kts 285°
2026-05-06 18:09 53.10815 -1.86949 9175 ft 331 kts 285°
2026-05-06 18:10 53.11404 -1.90624 8629 ft 328 kts 285°
2026-05-06 18:10 53.11987 -1.94277 8098 ft 325 kts 285°
2026-05-06 18:10 53.12556 -1.97897 7616 ft 321 kts 285°
2026-05-06 18:10 53.13114 -2.01463 7123 ft 318 kts 285°
2026-05-06 18:11 53.13668 -2.04994 6777 ft 309 kts 285°
2026-05-06 18:11 53.14197 -2.08383 6652 ft 295 kts 285°
2026-05-06 18:11 53.14698 -2.11606 6526 ft 281 kts 285°
2026-05-06 18:11 53.15174 -2.14687 6398 ft 268 kts 285°
2026-05-06 18:12 53.15632 -2.17653 6129 ft 262 kts 285°
2026-05-06 18:12 53.16087 -2.20589 5900 ft 261 kts 285°
2026-05-06 18:12 53.16542 -2.23513 5629 ft 262 kts 285°
2026-05-06 18:12 53.17008 -2.26455 5375 ft 261 kts 285°
2026-05-06 18:13 53.17472 -2.29347 5079 ft 255 kts 285°
2026-05-06 18:13 53.17929 -2.32176 4803 ft 250 kts 285°
2026-05-06 18:13 53.18382 -2.34936 4505 ft 245 kts 285°
2026-05-06 18:13 53.18829 -2.37648 4224 ft 240 kts 285°
2026-05-06 18:14 53.19267 -2.40311 3963 ft 236 kts 285°
2026-05-06 18:14 53.19696 -2.42928 3764 ft 230 kts 285°
2026-05-06 18:14 53.20110 -2.45461 3637 ft 224 kts 285°
2026-05-06 18:14 53.20515 -2.47943 3464 ft 220 kts 285°
2026-05-06 18:15 53.21165 -2.50183 3314 ft 212 kts 315°
2026-05-06 18:15 53.22410 -2.51153 3289 ft 195 kts
2026-05-06 18:15 53.23585 -2.50382 3169 ft 183 kts 44°
2026-05-06 18:15 53.24473 -2.48875 2959 ft 182 kts 50°
2026-05-06 18:16 53.25298 -2.47280 2721 ft 181 kts 52°
2026-05-06 18:16 53.26102 -2.45659 2477 ft 179 kts 53°
2026-05-06 18:16 53.26883 -2.44066 2226 ft 175 kts 52°
2026-05-06 18:16 53.27643 -2.42506 1996 ft 171 kts 52°
2026-05-06 18:17 53.28383 -2.40986 1768 ft 165 kts 53°
2026-05-06 18:17 53.29080 -2.39554 1558 ft 153 kts 53°
2026-05-06 18:17 53.29734 -2.38209 1343 ft 144 kts 54°
2026-05-06 18:17 53.30359 -2.36922 1134 ft 142 kts 52°
2026-05-06 18:18 53.30983 -2.35634 923 ft 143 kts 53°
2026-05-06 18:18 53.31616 -2.34353 756 ft 143 kts 51°
2026-05-06 18:18 53.32239 -2.33069 557 ft 141 kts 53°
2026-05-06 18:18 53.32850 -2.31804 388 ft 139 kts 54°
2026-05-06 18:19 53.33452 -2.30544 241 ft 134 kts 52°
2026-05-06 18:19 53.33957 -2.29495 226 ft 93 kts 51°
2026-05-06 18:19 53.34254 -2.28886 229 ft 40 kts 51°
2026-05-06 18:19 53.34440 -2.28591 227 ft 34 kts 28°
2026-05-06 18:20 53.34639 -2.28453 230 ft 21 kts 20°
2026-05-06 18:20 53.34758 -2.28306 230 ft 22 kts 50°
2026-05-06 18:20 53.34854 -2.28108 229 ft 24 kts 51°
2026-05-06 18:20 53.34954 -2.27898 230 ft 23 kts 52°
2026-05-06 18:21 53.35058 -2.27680 232 ft 24 kts 50°
2026-05-06 18:21 53.35162 -2.27467 236 ft 24 kts 51°
2026-05-06 18:21 53.35263 -2.27262 239 ft 20 kts 48°
2026-05-06 18:21 53.35328 -2.27189 244 ft 5 kts
2026-05-06 18:22 53.35336 -2.27188 244 ft 0 kts
2026-05-06 18:22 53.35337 -2.27188 244 ft 1 kts
2026-05-06 18:22 53.35360 -2.27192 245 ft 8 kts 351°
2026-05-06 18:22 53.35413 -2.27242 246 ft 11 kts 322°
2026-05-06 18:23 53.35486 -2.27343 248 ft 13 kts 321°
2026-05-06 18:23 53.35543 -2.27418 247 ft 6 kts 321°
2026-05-06 18:23 53.35570 -2.27453 245 ft 2 kts 321°
2026-05-06 18:23 53.35585 -2.27475 245 ft 4 kts 321°
2026-05-06 18:24 53.35604 -2.27499 245 ft 3 kts 321°
2026-05-06 18:24 53.35611 -2.27509 245 ft 1 kts 321°
2026-05-06 18:24 53.35652 -2.27565 246 ft 12 kts 321°
2026-05-06 18:24 53.35716 -2.27630 248 ft 9 kts 339°
2026-05-06 18:25 53.35794 -2.27700 251 ft 16 kts 317°
2026-05-06 18:25 53.35868 -2.27830 254 ft 13 kts 325°
2026-05-06 18:25 53.35944 -2.27855 255 ft 10 kts 346°
2026-05-06 18:25 53.36013 -2.27934 255 ft 16 kts 319°
2026-05-06 18:26 53.36098 -2.28057 255 ft 15 kts 319°
2026-05-06 18:26 53.36171 -2.28175 255 ft 14 kts 315°
2026-05-06 18:26 53.36235 -2.28284 255 ft 12 kts 313°
2026-05-06 18:26 53.36292 -2.28381 255 ft 10 kts 314°
2026-05-06 18:27 53.36314 -2.28418 255 ft 1 kts 315°
2026-05-06 18:27 53.36314 -2.28419 255 ft 0 kts 315°
2026-05-06 18:28 53.36315 -2.28420 255 ft 1 kts 315°
2026-05-06 18:28 53.36337 -2.28452 255 ft 7 kts 324°
2026-05-06 18:29 53.36385 -2.28459 255 ft 6 kts 36°
2026-05-06 18:29 53.36423 -2.28398 255 ft 9 kts 44°
2026-05-06 18:29 53.36478 -2.28347 255 ft 10 kts 30°
2026-05-06 18:29 53.36526 -2.28317 255 ft 7 kts 338°
2026-05-06 18:30 53.36543 -2.28348 255 ft 2 kts 312°
2026-05-06 18:30 53.36552 -2.28364 255 ft 1 kts 314°
2026-05-06 18:30 53.36553 -2.28366 255 ft 0 kts 314°